Okmulgee, OK

1:28 PM CDT on March 29, 2017 (GMT -0500)
Okmulgee Regional

Weather History for KOKM - August, 2014

Change the Weather History Date:

Tuesday, August 19, 2014

  Actual Average (KMKO) Record (KMKO)
Temperature  
Mean Temperature 84 °F -  
Max Temperature 96 °F 90 °F 105 °F (2006)
Min Temperature 71 °F 67 °F 57 °F (2015)
Cooling Degree Days 18    
Growing Degree Days 34 (Base 50)    
Moisture  
Dew Point 67 °F    
Average Humidity 59    
Maximum Humidity 81    
Minimum Humidity 39    
Precipitation  
Precipitation 0.00 in - - ()
Sea Level Pressure  
Sea Level Pressure 29.86 in    
Wind  
Wind Speed 6 mph (SSW)    
Max Wind Speed 15 mph    
Max Gust Speed 32 mph    
Visibility 10 miles    
Events      
Averages and records for this station are not official NWS values.
T = Trace of Precipitation, MM = Missing Value Source: NWS Daily Summary

Daily Weather History Graph

Daily Weather History Graph

Search for Another Location

Airport or City:

Trip Planner

Search our weather history database for the weather conditions in past years. The results will help you decide how hot, cold, wet, or windy it might be!

Date:

Astronomy

Aug. 19, 2014 Rise Set
Actual Time 6:45 AM CDT 8:08 PM CDT
Civil Twilight 6:19 AM CDT 8:35 PM CDT
Nautical Twilight 5:47 AM CDT 9:06 PM CDT
Astronomical Twilight 5:13 AM CDT 9:40 PM CDT
Moon 1:42 AM CDT (8/19) 4:02 PM CDT (8/19)
Length of Visible Light 14h 15m
Length of Day
13h 22m
Waning Crescent, 29% of the Moon is Illuminated
Aug 19
Waning Crescent
Aug 25
New
Sep 2
First Quarter
Sep 8
Full
Sep 15
Last Quarter

Hourly Weather History & Observations

Time (CDT) Temp. Heat Index Dew Point Humidity Pressure Visibility Wind Dir Wind Speed Gust Speed Precip Events Conditions
12:15 AM 81.0 °F 82.6 °F 64.4 °F 57% 29.83 in 10.0 mi Calm Calm - N/A   Clear
12:35 AM 79.9 °F - 64.9 °F 60% 29.82 in 10.0 mi Calm Calm - N/A   Clear
12:55 AM 78.8 °F - 64.4 °F 61% 29.82 in 10.0 mi SSE 6.9 mph - N/A   Clear
1:15 AM 79.9 °F - 62.1 °F 54% 29.82 in 10.0 mi South 4.6 mph - N/A   Clear
1:35 AM 78.4 °F - 62.6 °F 58% 29.82 in 10.0 mi Calm Calm - N/A   Clear
1:55 AM 78.1 °F - 62.6 °F 59% 29.82 in 10.0 mi SSW 8.1 mph - N/A   Clear
2:15 AM 76.5 °F - 63.3 °F 64% 29.81 in 10.0 mi SSW 8.1 mph - N/A   Clear
2:35 AM 74.3 °F - 63.7 °F 69% 29.82 in 10.0 mi WSW 3.5 mph - N/A   Clear
2:55 AM 75.7 °F - 63.1 °F 65% 29.83 in 10.0 mi SSW 6.9 mph - N/A   Clear
3:15 AM 76.1 °F - 63.1 °F 64% 29.84 in 10.0 mi SSW 8.1 mph - N/A   Clear
3:35 AM 76.3 °F - 63.3 °F 64% 29.84 in 10.0 mi SSW 9.2 mph - N/A   Clear
3:55 AM 76.5 °F - 63.1 °F 63% 29.83 in 10.0 mi South 9.2 mph - N/A   Clear
4:15 AM 77.4 °F - 63.0 °F 61% 29.84 in 10.0 mi SSW 8.1 mph - N/A   Clear
4:35 AM 77.9 °F - 63.0 °F 60% 29.85 in 10.0 mi SSW 8.1 mph - N/A   Clear
4:55 AM 77.0 °F - 63.5 °F 63% 29.85 in 10.0 mi SSW 10.4 mph - N/A   Clear
5:15 AM 76.1 °F - 63.5 °F 65% 29.86 in 10.0 mi SSW 8.1 mph - N/A   Clear
5:35 AM 74.7 °F - 63.7 °F 69% 29.87 in 10.0 mi WSW 4.6 mph - N/A   Clear
5:55 AM 73.2 °F - 63.9 °F 72% 29.88 in 10.0 mi SW 3.5 mph - N/A   Clear
6:15 AM 72.5 °F - 64.2 °F 75% 29.89 in 10.0 mi Calm Calm - N/A   Clear
6:35 AM 72.0 °F - 64.4 °F 77% 29.91 in 10.0 mi NNW 6.9 mph - N/A   Clear
6:55 AM 71.6 °F - 64.8 °F 79% 29.90 in 10.0 mi SW 3.5 mph - N/A   Clear
7:15 AM 71.2 °F - 65.3 °F 81% 29.91 in 10.0 mi Calm Calm - N/A   Clear
7:35 AM 72.7 °F - 66.0 °F 80% 29.91 in 10.0 mi West 3.5 mph - N/A   Clear
7:55 AM 74.8 °F - 65.3 °F 72% 29.91 in 10.0 mi Calm Calm - N/A   Clear
8:15 AM 75.6 °F - 66.4 °F 73% 29.91 in 10.0 mi South 5.8 mph - N/A   Clear
8:35 AM 77.4 °F - 66.0 °F 68% 29.91 in 10.0 mi SSW 10.4 mph - N/A   Clear
8:55 AM 79.9 °F - 66.0 °F 62% 29.89 in 10.0 mi South 8.1 mph - N/A   Clear
9:15 AM 81.0 °F 83.0 °F 65.7 °F 60% 29.89 in 10.0 mi SW 3.5 mph - N/A   Clear
9:35 AM 82.9 °F 85.0 °F 66.0 °F 56% 29.89 in 10.0 mi Calm Calm - N/A   Clear
9:55 AM 84.9 °F 87.6 °F 66.9 °F 55% 29.89 in 10.0 mi South 5.8 mph - N/A   Clear
10:15 AM 85.6 °F 88.8 °F 68.0 °F 55% 29.89 in 10.0 mi South 5.8 mph - N/A   Clear
10:35 AM 87.3 °F 90.5 °F 67.6 °F 52% 29.90 in 10.0 mi SSW 5.8 mph - N/A   Clear
10:55 AM 88.0 °F 91.8 °F 68.2 °F 52% 29.91 in 10.0 mi SSW 10.4 mph 16.1 mph N/A   Clear
11:15 AM 89.1 °F 93.3 °F 68.7 °F 51% 29.90 in 10.0 mi WSW 6.9 mph - N/A   Clear
11:35 AM 89.8 °F 94.6 °F 69.3 °F 51% 29.90 in 10.0 mi SSW 9.2 mph 20.7 mph N/A   Clear
11:55 AM 90.7 °F 95.4 °F 69.3 °F 49% 29.89 in 10.0 mi SSW 6.9 mph 17.3 mph N/A   Clear
12:15 PM 91.9 °F 96.9 °F 69.3 °F 47% 29.89 in 10.0 mi SSW 6.9 mph - N/A   Clear
12:35 PM 92.7 °F 98.3 °F 69.6 °F 47% 29.88 in 10.0 mi South 11.5 mph 17.3 mph N/A   Clear
12:55 PM 94.1 °F 100.0 °F 70.0 °F 45% 29.87 in 10.0 mi SSW 9.2 mph 17.3 mph N/A   Clear
1:15 PM 94.3 °F 99.8 °F 69.3 °F 44% 29.87 in 10.0 mi South 10.4 mph 24.2 mph N/A   Clear
1:35 PM 94.3 °F 99.8 °F 69.3 °F 44% 29.87 in 10.0 mi SW 12.7 mph 25.3 mph N/A   Clear
1:55 PM 94.6 °F 99.4 °F 68.5 °F 42% 29.87 in 10.0 mi SSW 15.0 mph 32.2 mph N/A   Clear
2:15 PM 95.4 °F 100.2 °F 68.4 °F 41% 29.86 in 10.0 mi SSW 12.7 mph 26.5 mph N/A   Clear
2:35 PM 95.5 °F 100.6 °F 68.4 °F 41% 29.86 in 10.0 mi SSW 12.7 mph 26.5 mph N/A   Clear
2:55 PM 95.5 °F 100.0 °F 68.0 °F 40% 29.85 in 10.0 mi SSW 9.2 mph 31.1 mph N/A   Clear
3:15 PM 96.3 °F 101.4 °F 68.5 °F 40% 29.85 in 10.0 mi SW 9.2 mph - N/A   Clear
3:35 PM 96.1 °F 101.0 °F 68.4 °F 40% 29.84 in 10.0 mi South 10.4 mph 23.0 mph N/A   Clear
4:15 PM 95.9 °F 100.1 °F 67.5 °F 39% 29.83 in 10.0 mi SW 11.5 mph 23.0 mph N/A   Clear
4:35 PM 95.7 °F 99.8 °F 67.5 °F 39% 29.83 in 10.0 mi SW 8.1 mph 17.3 mph N/A   Clear
4:55 PM 95.5 °F 100.6 °F 68.2 °F 41% 29.82 in 10.0 mi SSW 9.2 mph 17.3 mph N/A   Clear
5:15 PM 95.5 °F 101.8 °F 69.6 °F 43% 29.82 in 10.0 mi South 9.2 mph 27.6 mph N/A   Clear
5:35 PM 94.8 °F 100.9 °F 69.6 °F 44% 29.82 in 10.0 mi South 11.5 mph 23.0 mph N/A   Clear
5:55 PM 94.6 °F 100.0 °F 69.3 °F 43% 29.81 in 10.0 mi South 11.5 mph 20.7 mph N/A   Clear
6:15 PM 94.1 °F 99.5 °F 69.1 °F 44% 29.81 in 10.0 mi South 12.7 mph 20.7 mph N/A   Clear
6:35 PM 92.7 °F 98.3 °F 70.0 °F 47% 29.81 in 10.0 mi South 10.4 mph 18.4 mph N/A   Clear
6:55 PM 91.4 °F 97.3 °F 70.5 °F 50% 29.81 in 10.0 mi South 11.5 mph 21.9 mph N/A   Clear
7:15 PM 89.1 °F 95.0 °F 70.9 °F 55% 29.81 in 10.0 mi South 9.2 mph - N/A   Clear
7:35 PM 87.8 °F 93.4 °F 70.7 °F 57% 29.82 in 10.0 mi South 9.2 mph - N/A   Clear
7:55 PM 86.9 °F 92.1 °F 70.7 °F 58% 29.82 in 10.0 mi South 8.1 mph - N/A   Clear
8:15 PM 85.6 °F 90.8 °F 70.9 °F 61% 29.83 in 10.0 mi South 9.2 mph - N/A   Clear
8:35 PM 83.5 °F 88.2 °F 71.1 °F 66% 29.84 in 10.0 mi South 5.8 mph - N/A   Clear
8:55 PM 83.7 °F 88.6 °F 71.2 °F 66% 29.84 in 10.0 mi SSE 5.8 mph - N/A   Clear
9:15 PM 82.9 °F 88.0 °F 71.8 °F 69% 29.85 in 10.0 mi ESE 6.9 mph - N/A   Clear
9:35 PM 82.8 °F 88.2 °F 72.5 °F 71% 29.86 in 10.0 mi SE 8.1 mph - N/A   Clear
9:55 PM 81.7 °F 86.5 °F 72.3 °F 73% 29.86 in 10.0 mi ESE 8.1 mph - N/A   Clear
10:15 PM 81.7 °F 86.3 °F 71.8 °F 72% 29.86 in 10.0 mi SE 9.2 mph - N/A   Clear
10:35 PM 81.5 °F 86.1 °F 72.1 °F 73% 29.86 in 10.0 mi SE 9.2 mph - N/A   Clear
10:55 PM 81.5 °F 86.3 °F 72.3 °F 74% 29.86 in 10.0 mi SSE 8.1 mph - N/A   Clear
11:15 PM 81.1 °F 85.6 °F 72.0 °F 74% 29.87 in 10.0 mi SSE 9.2 mph 17.3 mph N/A   Clear
11:35 PM 81.0 °F 85.2 °F 71.8 °F 74% 29.88 in 10.0 mi SE 5.8 mph - N/A   Clear
11:55 PM 78.6 °F - 71.6 °F 79% 29.88 in 10.0 mi Calm Calm - N/A   Clear